Location: Celina Division
(33.3022°N, 96.7580°W)
Time: 06:45:12
(UTC+00:00)

Lacrosse 5 rocket - Pass Details

Date: 08 December 2021
Orbit: 457 x 634 km, 57.0° (Epoch: 17 January)

Event Time Altitude Azimuth Distance (km) Brightness Sun altitude
Rises 23:42:54 0° 339° (NNW) 2,628 4.8 -5.2°
Reaches altitude 10° 23:45:56 10° 5° (N) 1,779 3.6 -5.8°
Maximum altitude 23:48:12 14° 39° (NE) 1,542 3.1 -6.2°
Drops below altitude 10° 23:50:31 10° 73° (ENE) 1,838 3.3 -6.7°
Enters shadow 23:51:20 - 82° (E) 2,041 3.6 -6.9°
